This is the latest recevied weather packets stored in our database for station/object WB6AHC-1. If no packets are shown the sender has not sent any weather packets the latest 10 day(s).
| Time | Temp. | Humidity | Pressure | Rain* | Wind** | Luminosity | Snow |
|---|---|---|---|---|---|---|---|
| 1777454271 | 11.11° C | 87% | - | 0 mm | 0 m/s | - | - |
| 1777453427 | 11.11° C | 86% | - | 0 mm | 0 m/s | - | - |
| 1777452583 | 11.67° C | 86% | - | 0 mm | 0 m/s | - | - |
| 1777451736 | 11.67° C | 85% | - | 0 mm | 0 m/s | - | - |
| 1777450892 | 11.67° C | 85% | - | 0 mm | 0 m/s | - | - |
| 1777450048 | 12.22° C | 84% | - | 0 mm | 0 m/s | - | - |
| 1777449201 | 12.22° C | 83% | - | 0 mm | 0 m/s | - | - |
| 1777448357 | 12.78° C | 82% | - | 0 mm | 0 m/s | - | - |
| 1777447513 | 12.78° C | 81% | - | 0 mm | 0 m/s | - | - |
| 1777446666 | 13.33° C | 81% | - | 0 mm | 0 m/s | - | - |
| 1777445821 | 13.33° C | 80% | - | 0 mm | 0 m/s | - | - |
| 1777444977 | 13.89° C | 80% | - | 0 mm | 0 m/s | - | - |
| 1777444130 | 13.89° C | 78% | - | 0 mm | 0 m/s | - | - |
| 1777443286 | 14.44° C | 76% | - | 0 mm | 0 m/s | - | - |
| 1777442442 | 15° C | 75% | - | 0 mm | 0 m/s | - | - |
| 1777441595 | 15° C | 75% | - | 0 mm | 0 m/s | - | - |
| 1777440751 | 15° C | 74% | - | 0 mm | 0 m/s | - | - |
| 1777439906 | 15.56° C | 71% | - | 0 mm | 0 m/s | - | - |
| 1777439059 | 15.56° C | 71% | - | 0 mm | 0 m/s | - | - |
| 1777438215 | 16.11° C | 73% | - | 0 mm | 0 m/s | - | - |
| 1777437371 | 16.11° C | 73% | - | 0 mm | 0 m/s | - | - |
| 1777436524 | 16.11° C | 71% | - | 0 mm | 0 m/s | - | - |
| 1777435680 | 16.67° C | 70% | - | 0 mm | 0 m/s | - | - |
| 1777434835 | 16.67° C | 68% | - | 0 mm | 0 m/s | - | - |
| 1777433989 | 17.22° C | 63% | - | 0 mm | 0 m/s | - | - |
* Rain latest hour (hover to see other rain measurements)
** Current wind speed in m/s (hover to see current wind gust speed)